Pittsfield, IL

4:38 AM CST on February 23, 2017 (GMT -0600)
Pittsfield Penstone Municipal

Weather History for KPPQ - February, 2013

Change the Weather History Date:

Sunday, February 3, 2013

  Actual Average (KUIN) Record (KUIN)
Temperature  
Mean Temperature 30 °F -  
Max Temperature 33 °F 33 °F 66 °F (1992)
Min Temperature 26 °F 17 °F -18 °F (1996)
Degree Days  
Heating Degree Days 36    
Moisture  
Dew Point 21 °F    
Average Humidity 71    
Maximum Humidity 94    
Minimum Humidity 47    
Precipitation  
Precipitation 0.00 in - - ()
Sea Level Pressure  
Sea Level Pressure 30.08 in    
Wind  
Wind Speed 8 mph (WSW)    
Max Wind Speed 21 mph    
Max Gust Speed 31 mph    
Visibility 9 miles    
Events      
Averages and records for this station are not official NWS values.
T = Trace of Precipitation, MM = Missing Value Source: NWS Daily Summary

Daily Weather History Graph

Daily Weather History Graph

Search for Another Location

Airport or City:

Trip Planner

Search our weather history database for the weather conditions in past years. The results will help you decide how hot, cold, wet, or windy it might be!

Date:

Astronomy

Feb. 03, 2013 Rise Set
Actual Time 7:08 AM CST 5:25 PM CST
Civil Twilight 6:40 AM CST 5:54 PM CST
Nautical Twilight 6:08 AM CST 6:26 PM CST
Astronomical Twilight 5:36 AM CST 6:57 PM CST
Moon 12:36 AM CST (2/3) 11:03 AM CST (2/3)
Length of Visible Light 11h 13m
Length of Day
10h 17m
Waning Gibbous, 48% of the Moon is Illuminated
Feb 3
Waning Gibbous
Feb 10
New
Feb 17
First Quarter
Feb 25
Full
Mar 4
Last Quarter

Hourly Weather History & Observations

Time (CST) Temp. Windchill Dew Point Humidity Pressure Visibility Wind Dir Wind Speed Gust Speed Precip Events Conditions
12:15 AM 26.1 °F - 24.3 °F 93% 30.04 in 7.0 mi Calm Calm - N/A   Overcast
12:35 AM 26.2 °F - 24.3 °F 92% 30.04 in 10.0 mi Calm Calm - N/A   Overcast
12:55 AM 26.6 °F 22.6 °F 24.6 °F 92% 30.03 in 7.0 mi South 3.5 mph - N/A   Overcast
1:15 AM 26.6 °F 22.6 °F 24.8 °F 93% 30.02 in 7.0 mi South 3.5 mph - N/A   Overcast
1:35 AM 27.0 °F 23.0 °F 25.2 °F 93% 30.02 in 7.0 mi South 3.5 mph - N/A   Light Freezing Rain
1:55 AM 27.1 °F - 25.3 °F 93% 30.02 in 7.0 mi Calm Calm - N/A   Overcast
2:15 AM 27.5 °F 21.1 °F 25.7 °F 93% 30.02 in 7.0 mi SW 5.8 mph - N/A   Overcast
2:35 AM 28.4 °F 22.2 °F 26.6 °F 93% 30.02 in 7.0 mi WSW 5.8 mph - N/A   Overcast
2:55 AM 29.8 °F 20.9 °F 28.2 °F 94% 30.01 in 7.0 mi WSW 10.4 mph - N/A   Overcast
3:15 AM 30.0 °F 21.7 °F 28.2 °F 93% 30.01 in 7.0 mi West 9.2 mph - N/A   Overcast
3:35 AM 30.0 °F 22.4 °F 28.2 °F 93% 30.01 in 7.0 mi West 8.1 mph - N/A   Overcast
3:55 AM 30.2 °F 21.9 °F 28.2 °F 92% 30.00 in 7.0 mi West 9.2 mph - N/A   Overcast
4:15 AM 30.6 °F 21.8 °F 28.2 °F 91% 30.01 in 7.0 mi West 10.4 mph - N/A   Overcast
4:35 AM 31.1 °F 22.4 °F 28.0 °F 88% 30.01 in 10.0 mi WNW 10.4 mph - N/A   Overcast
4:55 AM 31.8 °F 22.8 °F 27.9 °F 85% 30.02 in 10.0 mi West 11.5 mph 16.1 mph N/A   Overcast
5:15 AM 32.0 °F 25.6 °F 28.0 °F 85% 30.02 in 10.0 mi WNW 6.9 mph 17.3 mph N/A   Overcast
5:35 AM 32.0 °F 23.0 °F 28.0 °F 85% 30.03 in 10.0 mi West 11.5 mph - N/A   Overcast
5:55 AM 32.0 °F 23.6 °F 28.0 °F 85% 30.02 in 10.0 mi West 10.4 mph - N/A   Overcast
6:15 AM 32.2 °F 23.2 °F 27.9 °F 84% 30.03 in 10.0 mi West 11.5 mph 17.3 mph N/A   Overcast
6:35 AM 32.7 °F 23.4 °F 27.5 °F 81% 30.04 in 10.0 mi West 12.7 mph 19.6 mph N/A   Overcast
6:55 AM 32.4 °F 23.0 °F 27.3 °F 82% 30.05 in 10.0 mi NW 12.7 mph 20.7 mph N/A   Overcast
7:15 AM 31.5 °F 20.1 °F 26.2 °F 81% 30.06 in 10.0 mi NW 17.3 mph 29.9 mph N/A   Overcast
7:35 AM 30.9 °F 20.2 °F 25.9 °F 82% 30.08 in 10.0 mi NW 15.0 mph 20.7 mph N/A   Overcast
7:55 AM 29.1 °F 17.1 °F 23.4 °F 79% 30.10 in 7.0 mi NW 17.3 mph 25.3 mph N/A   Overcast
8:15 AM 27.1 °F 13.4 °F 19.9 °F 74% 30.11 in 7.0 mi NW 20.7 mph 31.1 mph N/A   Overcast
8:35 AM 26.6 °F 13.4 °F 18.0 °F 70% 30.13 in 10.0 mi NW 18.4 mph 25.3 mph N/A   Mostly Cloudy
8:55 AM 26.8 °F 15.4 °F 17.1 °F 67% 30.14 in 10.0 mi WNW 13.8 mph 27.6 mph N/A   Mostly Cloudy
9:15 AM 27.0 °F 15.6 °F 18.5 °F 70% 30.15 in 10.0 mi WNW 13.8 mph 20.7 mph N/A   Overcast
9:35 AM 27.0 °F 16.1 °F 17.2 °F 67% 30.15 in 10.0 mi WNW 12.7 mph 21.9 mph N/A   Scattered Clouds
9:55 AM 27.3 °F 15.2 °F 17.1 °F 65% 30.16 in 10.0 mi WNW 16.1 mph 23.0 mph N/A   Scattered Clouds
10:15 AM 27.5 °F 16.3 °F 17.1 °F 65% 30.17 in 10.0 mi WNW 13.8 mph 24.2 mph N/A   Scattered Clouds
10:35 AM 28.4 °F 16.6 °F 16.9 °F 62% 30.17 in 10.0 mi WNW 16.1 mph 21.9 mph N/A   Clear
10:55 AM 29.1 °F 17.1 °F 17.1 °F 61% 30.18 in 10.0 mi WNW 17.3 mph 21.9 mph N/A   Clear
11:15 AM 29.3 °F 17.7 °F 17.4 °F 61% 30.19 in 10.0 mi WNW 16.1 mph 21.9 mph N/A   Clear
11:35 AM 30.2 °F 19.3 °F 17.4 °F 59% 30.19 in 10.0 mi WNW 15.0 mph 21.9 mph N/A   Clear
11:55 AM 30.2 °F 18.9 °F 18.7 °F 62% 30.19 in 10.0 mi West 16.1 mph 25.3 mph N/A   Scattered Clouds
12:15 PM 30.7 °F 20.0 °F 18.3 °F 60% 30.18 in 10.0 mi West 15.0 mph 23.0 mph N/A   Scattered Clouds
12:35 PM 30.6 °F 20.7 °F 17.4 °F 58% 30.18 in 10.0 mi West 12.7 mph 19.6 mph N/A   Clear
12:55 PM 31.5 °F 21.4 °F 17.2 °F 56% 30.17 in 10.0 mi WNW 13.8 mph 21.9 mph N/A   Clear
1:15 PM 31.8 °F 23.3 °F 16.5 °F 53% 30.16 in 10.0 mi WNW 10.4 mph 18.4 mph N/A   Clear
1:35 PM 32.0 °F 23.0 °F 15.6 °F 51% 30.16 in 10.0 mi WNW 11.5 mph - N/A   Clear
1:55 PM 32.5 °F 24.2 °F 16.0 °F 51% 30.16 in 10.0 mi WNW 10.4 mph 17.3 mph N/A   Clear
2:15 PM 32.9 °F 25.9 °F 15.4 °F 49% 30.15 in 10.0 mi WNW 8.1 mph - N/A   Clear
2:35 PM 33.1 °F 26.1 °F 16.0 °F 50% 30.15 in 10.0 mi West 8.1 mph - N/A   Clear
2:55 PM 33.6 °F 27.5 °F 15.3 °F 47% 30.15 in 10.0 mi WNW 6.9 mph - N/A   Scattered Clouds
3:15 PM 33.8 °F 27.0 °F 15.8 °F 48% 30.15 in 10.0 mi WNW 8.1 mph - N/A   Scattered Clouds
3:35 PM 33.3 °F 28.9 °F 17.1 °F 51% 30.13 in 10.0 mi WSW 4.6 mph - N/A   Clear
3:55 PM 33.1 °F 26.1 °F 17.6 °F 53% 30.13 in 10.0 mi WSW 8.1 mph - N/A   Clear
4:15 PM 33.1 °F 27.7 °F 17.2 °F 52% 30.13 in 10.0 mi WSW 5.8 mph - N/A   Clear
4:35 PM 32.9 °F 25.9 °F 17.6 °F 53% 30.11 in 10.0 mi SW 8.1 mph - N/A   Clear
4:55 PM 32.5 °F 27.1 °F 17.6 °F 54% 30.10 in 10.0 mi SW 5.8 mph - N/A   Clear
5:15 PM 32.0 °F 25.6 °F 18.3 °F 57% 30.10 in 10.0 mi SSW 6.9 mph - N/A   Clear
5:35 PM 31.6 °F 25.1 °F 19.4 °F 61% 30.10 in 10.0 mi SSW 6.9 mph - N/A   Clear
5:55 PM 31.1 °F 25.4 °F 19.0 °F 61% 30.09 in 10.0 mi SSW 5.8 mph - N/A   Clear
6:15 PM 30.9 °F 24.3 °F 19.2 °F 62% 30.09 in 10.0 mi SSW 6.9 mph - N/A   Clear
6:35 PM 30.7 °F 23.3 °F 18.7 °F 61% 30.10 in 10.0 mi SSW 8.1 mph - N/A   Clear
6:55 PM 30.2 °F 21.9 °F 19.0 °F 63% 30.10 in 10.0 mi SSW 9.2 mph - N/A   Clear
7:15 PM 30.0 °F 24.1 °F 18.7 °F 63% 30.09 in 10.0 mi South 5.8 mph - N/A   Clear
7:35 PM 29.3 °F 22.3 °F 19.0 °F 66% 30.08 in 10.0 mi South 6.9 mph - N/A   Clear
7:55 PM 28.4 °F 23.3 °F 20.3 °F 72% 30.07 in 10.0 mi SSE 4.6 mph - N/A   Clear
8:15 PM 28.2 °F 22.0 °F 20.3 °F 72% 30.07 in 10.0 mi SE 5.8 mph - N/A   Clear
8:35 PM 28.0 °F 21.7 °F 20.1 °F 72% 30.06 in 10.0 mi SE 5.8 mph - N/A   Clear
8:55 PM 27.9 °F 21.5 °F 20.7 °F 74% 30.05 in 10.0 mi SE 5.8 mph - N/A   Clear
9:15 PM 27.7 °F 21.3 °F 19.9 °F 73% 30.05 in 10.0 mi SSE 5.8 mph - N/A   Clear
9:35 PM 27.7 °F 20.4 °F 19.4 °F 71% 30.04 in 10.0 mi SSE 6.9 mph - N/A   Clear
9:55 PM 27.5 °F 21.1 °F 19.4 °F 72% 30.03 in 10.0 mi SE 5.8 mph - N/A   Clear
10:15 PM 27.9 °F 21.5 °F 19.4 °F 71% 30.02 in 10.0 mi SE 5.8 mph - N/A   Clear
10:35 PM 27.9 °F 20.6 °F 19.4 °F 71% 30.01 in 10.0 mi SSE 6.9 mph - N/A   Clear
10:55 PM 28.0 °F 20.0 °F 19.2 °F 70% 30.00 in 10.0 mi SE 8.1 mph - N/A   Clear
11:15 PM 28.2 °F 20.2 °F 19.0 °F 68% 30.00 in 10.0 mi SSE 8.1 mph - N/A   Clear
11:35 PM 28.4 °F 20.4 °F 19.0 °F 68% 29.99 in 10.0 mi SE 8.1 mph - N/A   Clear
11:55 PM 28.6 °F 20.7 °F 18.9 °F 67% 29.98 in 10.0 mi SE 8.1 mph - N/A   Clear